Retour au catalogue

YZ-1 R/B

ActifHEO
NORAD 41929·ROCKET BODY·🇨🇳 China

Lancé Mar 30, 2015 depuis Xichang Satellite Launch Center

Loading…

Prochains Passages (prochaines 24 heures)

TLE

FraisSource: Space-Track

Époque: Sep 17, 2026, 02:35 UTC

1 41929U 15019C   26260.10783736 -.00000615  00000-0  00000-0 0  9995
2 41929  17.2225  81.4640 7012978 320.4724 358.4276  0.27923502 11024

Suivez YZ-1 R/B en temps réel avec AllMySat

Download on the App Store